Location: Arboucave
(43.6130°N, 0.4343°W)
Time: 12:52:37
(UTC+00:00)

Cosmos 1869 - Pass Details

Date: 17 November 2025
Orbit: 453 x 481 km, 82.5° (Epoch: 10 December)

Event Time Altitude Azimuth Distance (km) Brightness Sun altitude
Rises 17:09:32 0° 169° (SSE) 2,490 6.8 -6.6°
Reaches altitude 10° 17:11:43 10° 160° (SSE) 1,614 5.7 -7.0°
Maximum altitude 17:14:57 36° 93° (E) 757 3.6 -7.6°
Drops below altitude 10° 17:18:12 10° 26° (NNE) 1,612 5.3 -8.1°
Sets 17:20:22 0° 17° (NNE) 2,488 6.3 -8.5°
